Time,TemperatureF,DewpointF,PressureIn,WindDirection,WindDirectionDegrees,WindSpeedMPH,WindSpeedGustMPH,Humidity,HourlyPrecipIn,Conditions,Clouds,dailyrainin,SoftwareType,DateUTC
2013-09-11 00:09:00,66.4,63.4,30.05,SW,226,0.0,2.0,90,0.00,,,0.00,Wunderground v.1.15,2013-09-11 05:09:00,
2013-09-11 00:19:00,66.3,63.3,30.05,SW,226,0.0,2.0,90,0.00,,,0.00,Wunderground v.1.15,2013-09-11 05:19:00,
2013-09-11 00:29:00,66.1,63.4,30.05,SW,226,0.0,2.0,91,0.00,,,0.00,Wunderground v.1.15,2013-09-11 05:29:00,
2013-09-11 00:39:00,65.6,62.9,30.05,SW,226,0.0,2.0,91,0.00,,,0.00,Wunderground v.1.15,2013-09-11 05:39:00,
2013-09-11 00:49:00,65.2,62.8,30.05,SW,226,0.0,2.0,92,0.00,,,0.00,Wunderground v.1.15,2013-09-11 05:49:00,
2013-09-11 00:54:00,65.1,63.0,30.05,SW,226,0.0,2.0,93,0.00,,,0.00,Wunderground v.1.15,2013-09-11 05:54:00,
2013-09-11 00:59:00,65.1,63.3,30.05,SW,226,0.0,2.0,94,0.00,,,0.00,Wunderground v.1.15,2013-09-11 05:59:00,
2013-09-11 01:09:00,65.1,63.0,30.05,SW,226,0.0,2.0,93,0.00,,,0.00,Wunderground v.1.15,2013-09-11 06:09:00,
2013-09-11 01:14:00,65.1,63.3,30.05,SW,226,0.0,2.0,94,0.00,,,0.00,Wunderground v.1.15,2013-09-11 06:14:00,
2013-09-11 01:24:00,65.7,63.6,30.05,SW,226,0.0,2.0,93,0.00,,,0.00,Wunderground v.1.15,2013-09-11 06:24:00,
2013-09-11 01:34:00,65.4,63.0,30.05,SW,226,0.0,2.0,92,0.00,,,0.00,Wunderground v.1.15,2013-09-11 06:34:00,
2013-09-11 01:44:00,65.0,62.9,30.05,SW,226,0.0,2.0,93,0.00,,,0.00,Wunderground v.1.15,2013-09-11 06:44:00,
2013-09-11 01:54:00,64.9,63.1,30.05,SW,226,0.0,2.0,94,0.00,,,0.00,Wunderground v.1.15,2013-09-11 06:54:00,
2013-09-11 02:04:00,64.6,62.8,30.05,SW,226,0.0,2.0,94,0.00,,,0.00,Wunderground v.1.15,2013-09-11 07:04:00,
2013-09-11 02:14:00,64.6,63.1,30.05,SW,226,0.0,2.0,95,0.00,,,0.00,Wunderground v.1.15,2013-09-11 07:14:00,
2013-09-11 02:29:00,64.4,62.9,30.05,SW,226,0.0,2.0,95,0.00,,,0.00,Wunderground v.1.15,2013-09-11 07:29:00,
2013-09-11 02:39:00,64.3,62.8,30.05,SW,226,0.0,2.0,95,0.00,,,0.00,Wunderground v.1.15,2013-09-11 07:39:00,
2013-09-11 02:49:00,64.1,62.6,30.05,SW,226,0.0,2.0,95,0.00,,,0.00,Wunderground v.1.15,2013-09-11 07:49:00,
2013-09-11 02:54:00,64.0,62.5,30.05,SW,226,0.0,2.0,95,0.00,,,0.00,Wunderground v.1.15,2013-09-11 07:54:00,
2013-09-11 03:04:00,63.8,62.6,30.05,SW,226,0.0,2.0,96,0.00,,,0.00,Wunderground v.1.15,2013-09-11 08:04:00,
2013-09-11 03:14:00,63.5,62.0,30.05,SW,226,0.0,2.0,95,0.00,,,0.00,Wunderground v.1.15,2013-09-11 08:14:00,
2013-09-11 03:24:00,63.5,62.3,30.05,SW,226,0.0,2.0,96,0.00,,,0.00,Wunderground v.1.15,2013-09-11 08:24:00,
2013-09-11 03:34:00,63.3,62.1,30.05,SW,226,0.0,2.0,96,0.00,,,0.00,Wunderground v.1.15,2013-09-11 08:34:00,
2013-09-11 03:44:00,63.7,62.8,30.05,SW,226,0.0,2.0,97,0.00,,,0.00,Wunderground v.1.15,2013-09-11 08:44:00,
2013-09-11 03:54:00,63.5,62.3,30.05,SW,226,0.0,2.0,96,0.00,,,0.00,Wunderground v.1.15,2013-09-11 08:54:00,
2013-09-11 04:04:00,63.4,62.5,30.05,SW,226,0.0,2.0,97,0.00,,,0.00,Wunderground v.1.15,2013-09-11 09:04:00,
2013-09-11 04:14:00,63.5,62.3,30.05,SW,226,0.0,2.0,96,0.00,,,0.00,Wunderground v.1.15,2013-09-11 09:14:00,
2013-09-11 04:24:00,63.5,62.3,30.06,SW,226,0.0,2.0,96,0.00,,,0.00,Wunderground v.1.15,2013-09-11 09:24:00,
2013-09-11 04:34:00,63.4,62.5,30.06,SW,226,0.0,2.0,97,0.00,,,0.00,Wunderground v.1.15,2013-09-11 09:34:00,
2013-09-11 04:44:00,63.2,62.0,30.05,SW,226,0.0,2.0,96,0.00,,,0.00,Wunderground v.1.15,2013-09-11 09:44:00,
2013-09-11 04:54:00,63.0,62.1,30.06,SW,226,0.0,2.0,97,0.00,,,0.00,Wunderground v.1.15,2013-09-11 09:54:00,
2013-09-11 04:59:00,62.8,61.9,30.06,SW,226,0.0,2.0,97,0.00,,,0.00,Wunderground v.1.15,2013-09-11 09:59:00,
2013-09-11 05:09:00,63.1,62.2,30.06,SW,226,0.0,2.0,97,0.00,,,0.00,Wunderground v.1.15,2013-09-11 10:09:00,
2013-09-11 05:19:00,62.7,61.8,30.06,SW,226,0.0,2.0,97,0.00,,,0.00,Wunderground v.1.15,2013-09-11 10:19:00,
2013-09-11 05:29:00,62.9,62.0,30.06,SW,226,0.0,2.0,97,0.00,,,0.00,Wunderground v.1.15,2013-09-11 10:29:00,
2013-09-11 05:39:00,63.0,62.1,30.06,SW,226,0.0,2.0,97,0.00,,,0.00,Wunderground v.1.15,2013-09-11 10:39:00,
2013-09-11 05:49:00,62.9,62.0,30.06,SW,226,0.0,2.0,97,0.00,,,0.00,Wunderground v.1.15,2013-09-11 10:49:00,
2013-09-11 05:59:00,62.6,61.7,30.07,SW,226,0.0,2.0,97,0.00,,,0.00,Wunderground v.1.15,2013-09-11 10:59:00,
2013-09-11 06:09:00,62.3,61.4,30.07,SW,226,0.0,2.0,97,0.00,,,0.00,Wunderground v.1.15,2013-09-11 11:09:00,
2013-09-11 06:19:00,62.5,61.6,30.07,SW,226,0.0,2.0,97,0.00,,,0.00,Wunderground v.1.15,2013-09-11 11:19:00,
2013-09-11 06:29:00,62.3,61.4,30.08,SW,226,0.0,2.0,97,0.00,,,0.00,Wunderground v.1.15,2013-09-11 11:29:00,
2013-09-11 06:39:00,62.2,61.3,30.08,SW,226,0.0,2.0,97,0.00,,,0.00,Wunderground v.1.15,2013-09-11 11:39:00,
2013-09-11 06:49:00,62.5,61.9,30.08,SW,226,0.0,2.0,98,0.00,,,0.00,Wunderground v.1.15,2013-09-11 11:49:00,
2013-09-11 06:59:00,62.6,62.0,30.08,SW,226,0.0,2.0,98,0.00,,,0.00,Wunderground v.1.15,2013-09-11 11:59:00,
2013-09-11 07:09:00,63.0,62.4,30.08,SW,226,0.0,2.0,98,0.00,,,0.00,Wunderground v.1.15,2013-09-11 12:09:00,
2013-09-11 07:19:00,63.3,62.7,30.08,SW,226,0.0,2.0,98,0.00,,,0.00,Wunderground v.1.15,2013-09-11 12:19:00,
2013-09-11 07:29:00,63.9,63.3,30.09,SW,226,0.0,2.0,98,0.00,,,0.00,Wunderground v.1.15,2013-09-11 12:29:00,
2013-09-11 07:39:00,65.7,64.8,30.08,SW,226,0.0,2.0,97,0.00,,,0.00,Wunderground v.1.15,2013-09-11 12:39:00,
2013-09-11 07:49:00,67.7,66.2,30.08,SW,226,0.0,2.0,95,0.00,,,0.00,Wunderground v.1.15,2013-09-11 12:49:00,
2013-09-11 07:59:00,70.3,67.5,30.08,SW,226,0.0,2.0,91,0.00,,,0.00,Wunderground v.1.15,2013-09-11 12:59:00,
2013-09-11 08:09:00,71.9,67.1,30.08,SW,226,0.0,2.0,85,0.00,,,0.00,Wunderground v.1.15,2013-09-11 13:09:00,
2013-09-11 08:19:00,73.4,66.9,30.08,SW,226,0.0,2.0,80,0.00,,,0.00,Wunderground v.1.15,2013-09-11 13:19:00,
2013-09-11 08:29:00,74.0,66.3,30.08,SW,226,0.0,2.0,77,0.00,,,0.00,Wunderground v.1.15,2013-09-11 13:29:00,
2013-09-11 08:39:00,75.5,67.0,30.09,SW,226,0.0,2.0,75,0.00,,,0.00,Wunderground v.1.15,2013-09-11 13:39:00,
2013-09-11 08:49:00,76.9,67.6,30.09,SW,226,0.0,2.0,73,0.00,,,0.00,Wunderground v.1.15,2013-09-11 13:49:00,
2013-09-11 08:59:00,78.3,66.0,30.09,ESE,111,0.0,2.0,66,0.00,,,0.00,Wunderground v.1.15,2013-09-11 13:59:00,
2013-09-11 09:04:00,78.0,67.4,30.09,East,79,0.0,2.0,70,0.00,,,0.00,Wunderground v.1.15,2013-09-11 14:04:00,
2013-09-11 09:14:00,79.0,66.2,30.09,ENE,77,0.0,2.0,65,0.00,,,0.00,Wunderground v.1.15,2013-09-11 14:14:00,
2013-09-11 09:24:00,78.2,66.8,30.09,East,101,0.0,2.0,68,0.00,,,0.00,Wunderground v.1.15,2013-09-11 14:24:00,
2013-09-11 09:34:00,79.5,65.8,30.10,ESE,105,0.0,2.0,63,0.00,,,0.00,Wunderground v.1.15,2013-09-11 14:34:00,
2013-09-11 09:44:00,79.4,66.2,30.09,ESE,108,0.0,2.0,64,0.00,,,0.00,Wunderground v.1.15,2013-09-11 14:44:00,
2013-09-11 09:54:00,80.2,67.4,30.09,East,81,0.0,2.0,65,0.00,,,0.00,Wunderground v.1.15,2013-09-11 14:54:00,
2013-09-11 10:04:00,81.5,67.7,30.09,ESE,117,0.0,2.0,63,0.00,,,0.00,Wunderground v.1.15,2013-09-11 15:04:00,
2013-09-11 10:14:00,83.5,68.6,30.10,ESE,110,0.0,2.0,61,0.00,,,0.00,Wunderground v.1.15,2013-09-11 15:14:00,
2013-09-11 10:24:00,84.6,67.7,30.10,SSW,204,0.0,2.0,57,0.00,,,0.00,Wunderground v.1.15,2013-09-11 15:24:00,
2013-09-11 10:34:00,85.7,68.2,30.10,East,86,0.0,2.0,56,0.00,,,0.00,Wunderground v.1.15,2013-09-11 15:34:00,
2013-09-11 10:39:00,85.7,67.1,30.10,ENE,78,0.0,2.0,54,0.00,,,0.00,Wunderground v.1.15,2013-09-11 15:39:00,
2013-09-11 10:49:00,85.7,68.2,30.10,SE,135,0.0,2.0,56,0.00,,,0.00,Wunderground v.1.15,2013-09-11 15:49:00,
2013-09-11 10:59:00,87.4,68.7,30.10,East,86,0.0,2.0,54,0.00,,,0.00,Wunderground v.1.15,2013-09-11 15:59:00,
2013-09-11 11:09:00,87.5,69.3,30.09,ESE,123,0.0,2.0,55,0.00,,,0.00,Wunderground v.1.15,2013-09-11 16:09:00,
2013-09-11 11:14:00,88.8,69.5,30.09,SW,223,0.0,2.0,53,0.00,,,0.00,Wunderground v.1.15,2013-09-11 16:14:00,
2013-09-11 11:24:00,90.3,69.7,30.09,SSW,201,0.0,2.0,51,0.00,,,0.00,Wunderground v.1.15,2013-09-11 16:24:00,
2013-09-11 11:34:00,90.2,69.6,30.09,SSE,155,0.0,2.0,51,0.00,,,0.00,Wunderground v.1.15,2013-09-11 16:34:00,
2013-09-11 11:44:00,91.4,67.7,30.09,South,191,0.0,2.0,46,0.00,,,0.00,Wunderground v.1.15,2013-09-11 16:44:00,
2013-09-11 11:54:00,91.5,67.2,30.08,ESE,113,0.0,2.0,45,0.00,,,0.00,Wunderground v.1.15,2013-09-11 16:54:00,
2013-09-11 12:04:00,92.2,67.8,30.08,ESE,113,0.0,2.0,45,0.00,,,0.00,Wunderground v.1.15,2013-09-11 17:04:00,
2013-09-11 12:14:00,91.7,68.6,30.08,ENE,76,0.0,2.0,47,0.00,,,0.00,Wunderground v.1.15,2013-09-11 17:14:00,
2013-09-11 12:24:00,91.7,68.6,30.08,South,186,1.0,2.0,47,0.00,,,0.00,Wunderground v.1.15,2013-09-11 17:24:00,
2013-09-11 12:35:00,92.1,67.7,30.08,SE,129,1.0,2.0,45,0.00,,,0.00,Wunderground v.1.15,2013-09-11 17:35:00,
2013-09-11 12:44:00,92.9,66.4,30.08,ESE,120,0.0,2.0,42,0.00,,,0.00,Wunderground v.1.15,2013-09-11 17:44:00,
2013-09-11 12:54:00,93.6,67.1,30.08,SW,228,0.0,2.0,42,0.00,,,0.00,Wunderground v.1.15,2013-09-11 17:54:00,
2013-09-11 12:59:00,94.0,66.7,30.07,East,93,0.0,2.0,41,0.00,,,0.00,Wunderground v.1.15,2013-09-11 17:59:00,
2013-09-11 13:09:00,92.8,65.6,30.07,ESE,103,1.0,3.0,41,0.00,,,0.00,Wunderground v.1.15,2013-09-11 18:09:00,
2013-09-11 13:19:00,93.2,66.7,30.07,WSW,256,1.0,1.0,42,0.00,,,0.00,Wunderground v.1.15,2013-09-11 18:19:00,
2013-09-11 13:29:00,94.5,67.2,30.06,ESE,123,1.0,1.0,41,0.00,,,0.00,Wunderground v.1.15,2013-09-11 18:29:00,
2013-09-11 13:39:00,93.6,69.1,30.06,WSW,253,1.0,4.0,45,0.00,,,0.00,Wunderground v.1.15,2013-09-11 18:39:00,
2013-09-11 13:44:00,93.8,66.5,30.06,SW,226,1.0,4.0,41,0.00,,,0.00,Wunderground v.1.15,2013-09-11 18:44:00,
2013-09-11 13:54:00,93.9,68.7,30.05,NE,52,0.0,2.0,44,0.00,,,0.00,Wunderground v.1.15,2013-09-11 18:54:00,
2013-09-11 14:04:00,92.4,66.7,30.05,ESE,117,0.0,2.0,43,0.00,,,0.00,Wunderground v.1.15,2013-09-11 19:04:00,
2013-09-11 14:15:00,93.9,65.9,30.05,NW,308,0.0,2.0,40,0.00,,,0.00,Wunderground v.1.15,2013-09-11 19:15:00,
2013-09-11 14:24:00,93.7,67.1,30.05,East,88,1.0,2.0,42,0.00,,,0.00,Wunderground v.1.15,2013-09-11 19:24:00,
2013-09-11 14:34:00,92.9,69.1,30.05,SSW,213,1.0,2.0,46,0.00,,,0.00,Wunderground v.1.15,2013-09-11 19:34:00,
2013-09-11 14:44:00,92.5,67.4,30.04,East,89,1.0,2.0,44,0.00,,,0.00,Wunderground v.1.15,2013-09-11 19:44:00,
2013-09-11 14:55:00,93.3,66.1,30.04,SSE,155,0.0,2.0,41,0.00,,,0.00,Wunderground v.1.15,2013-09-11 19:55:00,
2013-09-11 15:04:00,93.7,67.1,30.03,East,86,0.0,2.0,42,0.00,,,0.00,Wunderground v.1.15,2013-09-11 20:04:00,
2013-09-11 15:14:00,93.1,68.6,30.03,SSW,211,1.0,2.0,45,0.00,,,0.00,Wunderground v.1.15,2013-09-11 20:14:00,
2013-09-11 15:24:00,93.9,66.6,30.02,WSW,252,0.0,2.0,41,0.00,,,0.00,Wunderground v.1.15,2013-09-11 20:24:00,
2013-09-11 15:35:00,93.9,66.6,30.02,SW,229,0.0,2.0,41,0.00,,,0.00,Wunderground v.1.15,2013-09-11 20:35:00,
2013-09-11 15:44:00,93.5,67.0,30.02,SW,224,0.0,2.0,42,0.00,,,0.00,Wunderground v.1.15,2013-09-11 20:44:00,
2013-09-11 15:54:00,93.1,68.0,30.01,SW,236,1.0,2.0,44,0.00,,,0.00,Wunderground v.1.15,2013-09-11 20:54:00,
2013-09-11 16:04:00,92.9,66.4,30.01,SE,134,0.0,2.0,42,0.00,,,0.00,Wunderground v.1.15,2013-09-11 21:04:00,
2013-09-11 16:14:00,93.3,66.1,30.01,SE,138,0.0,2.0,41,0.00,,,0.00,Wunderground v.1.15,2013-09-11 21:14:00,
2013-09-11 16:24:00,92.8,65.6,30.01,South,189,1.0,2.0,41,0.00,,,0.00,Wunderground v.1.15,2013-09-11 21:24:00,
2013-09-11 16:34:00,93.0,65.1,30.00,ESE,109,0.0,2.0,40,0.00,,,0.00,Wunderground v.1.15,2013-09-11 21:34:00,
2013-09-11 16:45:00,93.1,65.2,30.00,WSW,245,0.0,2.0,40,0.00,,,0.00,Wunderground v.1.15,2013-09-11 21:45:00,
2013-09-11 16:54:00,93.0,67.2,30.00,SSE,158,0.0,2.0,43,0.00,,,0.00,Wunderground v.1.15,2013-09-11 21:54:00,
2013-09-11 17:04:00,93.3,68.8,30.00,SE,138,0.0,2.0,45,0.00,,,0.00,Wunderground v.1.15,2013-09-11 22:04:00,
2013-09-11 17:14:00,93.2,68.7,30.00,ESE,105,0.0,2.0,45,0.00,,,0.00,Wunderground v.1.15,2013-09-11 22:14:00,
2013-09-11 17:25:00,92.1,66.4,30.00,SE,131,0.0,2.0,43,0.00,,,0.00,Wunderground v.1.15,2013-09-11 22:25:00,
2013-09-11 17:34:00,91.8,68.7,30.00,ESE,105,0.0,2.0,47,0.00,,,0.00,Wunderground v.1.15,2013-09-11 22:34:00,
2013-09-11 17:44:00,91.6,68.5,29.99,ESE,104,0.0,2.0,47,0.00,,,0.00,Wunderground v.1.15,2013-09-11 22:44:00,
2013-09-11 17:54:00,90.7,68.3,29.99,East,100,0.0,2.0,48,0.00,,,0.00,Wunderground v.1.15,2013-09-11 22:54:00,
2013-09-11 18:05:00,89.5,68.4,29.99,East,100,0.0,2.0,50,0.00,,,0.00,Wunderground v.1.15,2013-09-11 23:05:00,
2013-09-11 18:14:00,88.5,69.7,29.99,East,100,0.0,2.0,54,0.00,,,0.00,Wunderground v.1.15,2013-09-11 23:14:00,
2013-09-11 18:24:00,87.9,72.3,29.99,East,101,0.0,2.0,60,0.00,,,0.00,Wunderground v.1.15,2013-09-11 23:24:00,
2013-09-11 18:34:00,86.6,72.0,29.99,East,101,0.0,2.0,62,0.00,,,0.00,Wunderground v.1.15,2013-09-11 23:34:00,
2013-09-11 18:44:00,84.7,72.5,29.99,East,100,0.0,2.0,67,0.00,,,0.00,Wunderground v.1.15,2013-09-11 23:44:00,
2013-09-11 18:54:00,83.6,72.3,29.99,East,101,0.0,2.0,69,0.00,,,0.00,Wunderground v.1.15,2013-09-11 23:54:00,
2013-09-11 19:04:00,82.6,71.8,29.99,East,101,0.0,2.0,70,0.00,,,0.00,Wunderground v.1.15,2013-09-12 00:04:00,
2013-09-11 19:14:00,81.0,71.9,29.99,East,100,0.0,2.0,74,0.00,,,0.00,Wunderground v.1.15,2013-09-12 00:14:00,
2013-09-11 19:19:00,80.4,71.7,29.99,East,101,0.0,2.0,75,0.00,,,0.00,Wunderground v.1.15,2013-09-12 00:19:00,
2013-09-11 19:29:00,79.2,71.0,30.00,East,100,0.0,2.0,76,0.00,,,0.00,Wunderground v.1.15,2013-09-12 00:29:00,
2013-09-11 19:39:00,78.3,70.5,30.00,East,100,0.0,2.0,77,0.00,,,0.00,Wunderground v.1.15,2013-09-12 00:39:00,
2013-09-11 19:49:00,77.6,70.6,30.00,East,100,0.0,2.0,79,0.00,,,0.00,Wunderground v.1.15,2013-09-12 00:49:00,
2013-09-11 19:55:00,77.1,70.1,30.00,East,100,0.0,2.0,79,0.00,,,0.00,Wunderground v.1.15,2013-09-12 00:55:00,
2013-09-11 20:04:00,76.5,69.9,30.01,East,100,0.0,2.0,80,0.00,,,0.00,Wunderground v.1.15,2013-09-12 01:04:00,
2013-09-11 20:14:00,76.2,69.2,30.01,East,101,0.0,2.0,79,0.00,,,0.00,Wunderground v.1.15,2013-09-12 01:14:00,
2013-09-11 20:24:00,76.5,69.9,30.01,East,101,0.0,2.0,80,0.00,,,0.00,Wunderground v.1.15,2013-09-12 01:24:00,
2013-09-11 20:35:00,75.7,69.5,30.01,East,101,0.0,2.0,81,0.00,,,0.00,Wunderground v.1.15,2013-09-12 01:35:00,
2013-09-11 20:44:00,75.1,68.9,30.02,East,100,0.0,2.0,81,0.00,,,0.00,Wunderground v.1.15,2013-09-12 01:44:00,
2013-09-11 20:54:00,74.6,68.7,30.02,East,101,0.0,2.0,82,0.00,,,0.00,Wunderground v.1.15,2013-09-12 01:54:00,
2013-09-11 21:04:00,74.2,68.7,30.02,East,100,0.0,2.0,83,0.00,,,0.00,Wunderground v.1.15,2013-09-12 02:04:00,
2013-09-11 21:15:00,74.5,70.0,30.03,SW,233,0.0,2.0,86,0.00,,,0.00,Wunderground v.1.15,2013-09-12 02:15:00,
2013-09-11 21:24:00,75.7,69.8,30.03,SW,233,0.0,2.0,82,0.00,,,0.00,Wunderground v.1.15,2013-09-12 02:24:00,
2013-09-11 21:34:00,75.2,69.7,30.03,SW,233,0.0,2.0,83,0.00,,,0.00,Wunderground v.1.15,2013-09-12 02:34:00,
2013-09-11 21:44:00,74.7,69.5,30.03,SW,233,0.0,2.0,84,0.00,,,0.00,Wunderground v.1.15,2013-09-12 02:44:00,
2013-09-11 21:49:00,74.5,69.7,30.03,SW,233,0.0,2.0,85,0.00,,,0.00,Wunderground v.1.15,2013-09-12 02:49:00,
2013-09-11 21:59:00,73.9,69.4,30.03,SW,233,0.0,2.0,86,0.00,,,0.00,Wunderground v.1.15,2013-09-12 02:59:00,
2013-09-11 22:09:00,74.0,69.5,30.03,SW,233,0.0,2.0,86,0.00,,,0.00,Wunderground v.1.15,2013-09-12 03:09:00,
2013-09-11 22:19:00,73.5,69.4,30.03,SW,233,0.0,2.0,87,0.00,,,0.00,Wunderground v.1.15,2013-09-12 03:19:00,
2013-09-11 22:25:00,73.2,69.1,30.03,SW,233,0.0,2.0,87,0.00,,,0.00,Wunderground v.1.15,2013-09-12 03:25:00,
2013-09-11 22:34:00,72.9,69.5,30.03,WSW,257,0.0,2.0,89,0.00,,,0.00,Wunderground v.1.15,2013-09-12 03:34:00,
2013-09-11 22:44:00,73.1,69.0,30.02,WSW,257,0.0,2.0,87,0.00,,,0.00,Wunderground v.1.15,2013-09-12 03:44:00,
2013-09-11 22:54:00,73.0,68.9,30.02,WSW,257,0.0,2.0,87,0.00,,,0.00,Wunderground v.1.15,2013-09-12 03:54:00,
2013-09-11 23:04:00,74.3,68.4,30.02,ENE,76,0.0,2.0,82,0.00,,,0.00,Wunderground v.1.15,2013-09-12 04:04:00,
2013-09-11 23:09:00,75.0,68.4,30.02,SSE,166,0.0,2.0,80,0.00,,,0.00,Wunderground v.1.15,2013-09-12 04:09:00,
2013-09-11 23:19:00,75.1,68.1,30.02,South,179,0.0,2.0,79,0.00,,,0.00,Wunderground v.1.15,2013-09-12 04:19:00,
2013-09-11 23:24:00,75.0,68.0,30.02,South,179,0.0,2.0,79,0.00,,,0.00,Wunderground v.1.15,2013-09-12 04:24:00,
2013-09-11 23:29:00,74.7,68.1,30.01,South,179,0.0,2.0,80,0.00,,,0.00,Wunderground v.1.15,2013-09-12 04:29:00,
2013-09-11 23:39:00,74.1,68.3,30.01,South,179,0.0,2.0,82,0.00,,,0.00,Wunderground v.1.15,2013-09-12 04:39:00,
2013-09-11 23:49:00,73.8,68.3,30.01,South,174,0.0,2.0,83,0.00,,,0.00,Wunderground v.1.15,2013-09-12 04:49:00,
2013-09-11 23:59:00,74.0,68.5,30.01,ENE,60,0.0,2.0,83,0.00,,,0.00,Wunderground v.1.15,2013-09-12 04:59:00,